This is the latest recevied weather packets stored in our database for station/object K7KAZ. If no packets are shown the sender has not sent any weather packets the latest 10 day(s).
| Time | Temp. | Humidity | Pressure | Rain* | Wind** | Luminosity | Snow |
|---|---|---|---|---|---|---|---|
| 1778069021 | 14.44° C | 50% | 1016.9 hPa | 0 mm | - | 0 W/m² | - |
| 1778068718 | 13.89° C | 51% | 1016.8 hPa | 0 mm | - | 0 W/m² | - |
| 1778068416 | 14.44° C | 49% | 1017.1 hPa | 0 mm | - | 0 W/m² | - |
| 1778068114 | 13.89° C | 50% | 1016.7 hPa | 0 mm | - | 0 W/m² | - |
| 1778067811 | 14.44° C | 48% | 1016.9 hPa | 0 mm | - | 0 W/m² | - |
| 1778067510 | 13.89° C | 50% | 1016.7 hPa | 0 mm | - | 0 W/m² | - |
| 1778067207 | 14.44° C | 49% | 1016.9 hPa | 0 mm | - | 0 W/m² | - |
| 1778066903 | 14.44° C | 49% | 1016.7 hPa | 0 mm | - | 0 W/m² | - |
| 1778066600 | 14.44° C | 50% | 1017 hPa | 0 mm | - | 0 W/m² | - |
| 1778066298 | 14.44° C | 50% | 1016.7 hPa | 0 mm | - | 0 W/m² | - |
| 1778065996 | 14.44° C | 49% | 1016.7 hPa | 0 mm | - | 0 W/m² | - |
| 1778065693 | 14.44° C | 49% | 1016.7 hPa | 0 mm | - | 0 W/m² | - |
| 1778065390 | 15° C | 48% | 1016.8 hPa | 0 mm | - | 0 W/m² | - |
| 1778065087 | 15° C | 48% | 1016.6 hPa | 0 mm | - | 0 W/m² | - |
| 1778064783 | 15° C | 48% | 1016.5 hPa | 0 mm | - | 0 W/m² | - |
| 1778064481 | 15° C | 48% | 1016.5 hPa | 0 mm | - | 0 W/m² | - |
| 1778064179 | 15.56° C | 46% | 1016.5 hPa | 0 mm | - | 0 W/m² | - |
| 1778063876 | 15.56° C | 45% | 1016.5 hPa | 0 mm | - | 0 W/m² | - |
| 1778063573 | 15.56° C | 45% | 1016.5 hPa | 0 mm | - | 0 W/m² | - |
| 1778063271 | 16.11° C | 43% | 1016.6 hPa | 0 mm | - | 0 W/m² | - |
| 1778062969 | 16.67° C | 43% | 1016.4 hPa | 0 mm | - | 0 W/m² | - |
| 1778062665 | 16.67° C | 43% | 1016.4 hPa | 0 mm | - | 0 W/m² | - |
| 1778062362 | 16.11° C | 43% | 1016.6 hPa | 0 mm | - | 0 W/m² | - |
| 1778062060 | 16.11° C | 43% | 1016.2 hPa | 0 mm | - | 0 W/m² | - |
| 1778061758 | 16.11° C | 44% | 1016.2 hPa | 0 mm | - | 0 W/m² | - |
* Rain latest hour (hover to see other rain measurements)
** Current wind speed in m/s (hover to see current wind gust speed)